Content
SEND FEEDBACK

Daily
Averages
Monthly
Summary
United States of America

CROWELL, TEXAS


Home > North America > United States > Texas
Elevation: 1450 feet     Latitude: 33 59N     Longitude: 099 43W

WEATHER
 
SELECT A DAY
Number of Records: 261,894;   Date Range: 6/6/03 - 9/18/14
 
SHARE

PRINT THIS DATA

[ ← Previous Day ]
WEATHER ALMANAC - JANUARY 31, 2013
[ Next Day → ]
[ °C ]   °F
Weather ElementAverageHighLow
Temperature43.2 °F66.2 °F (4:35 pm)27.9 °F (7:55 am)
Dewpoint19.9 °F27.7 °F (7:15 pm)14 °F (12:55 am)
Humidity43.9 %69 % (11:55 pm)15 % (4:15 pm)
Barometer30.14 in30.37 in (11:55 pm)30.06 in (4:35 am)
Wind Speed8.9 mph21.9 mph (6:15 pm)
Wind Gust28.8 mph (6:35 pm)
Weather ElementAverage
Visibility10 mi
Wind DirectionSSE (169.3 °)

Weather ElementTotal
Precipitation---
Heating Degree Days18 (Base 65)
Averaged from 69 records on January 31, 2013
WEATHER CONDITIONS BREAKOUT
WIND DIRECTION BREAKOUT
WEATHER BY HOUR - JANUARY 31, 2013
[ °C ]   °F
Local TimeTemperatureDewpointHumidityBarometerVisibilityWind DirectionWind SpeedGust SpeedPrecipitationEventsConditions
12:35 AM31.8 °F14.2 °F48 %30.09 in10.0 miWSW (250°)5.8 mphScattered Clouds
12:55 AM31.8 °F14.0 °F48 %30.08 in10.0 miSW (230°)6.9 mphScattered Clouds
1:15 AM31.6 °F14.0 °F48 %30.07 in10.0 miWSW (240°)5.8 mphClear
1:35 AM31.8 °F14.4 °F49 %30.07 in10.0 miSW (230°)6.9 mphClear
1:55 AM30.9 °F14.5 °F51 %30.07 in10.0 miSW (220°)11.5 mphScattered Clouds
2:15 AM30.7 °F14.9 °F52 %30.07 in10.0 miSW (230°)9.2 mphScattered Clouds
2:35 AM30.4 °F14.9 °F53 %30.08 in10.0 miWSW (240°)9.2 mphClear
2:55 AM30.4 °F14.7 °F52 %30.08 in10.0 miSW (220°)10.4 mphClear
3:15 AM30.4 °F14.5 °F52 %30.08 in10.0 miSW (220°)9.2 mphClear
3:35 AM30.2 °F14.7 °F53 %30.07 in10.0 miSW (220°)9.2 mphClear
3:55 AM29.5 °F14.9 °F55 %30.07 in10.0 miSSW (210°)9.2 mphClear
4:15 AM30.0 °F15.1 °F54 %30.07 in10.0 miSSW (210°)9.2 mphClear
4:35 AM29.8 °F15.4 °F55 %30.06 in10.0 miSSW (200°)9.2 mphClear
4:55 AM29.5 °F15.6 °F56 %30.07 in10.0 miSW (220°)9.2 mphClear
5:15 AM29.5 °F16.0 °F57 %30.06 in10.0 miSW (220°)11.5 mphClear
5:35 AM30.4 °F16.3 °F56 %30.06 in10.0 miSSW (210°)11.5 mphClear
5:55 AM31.1 °F16.5 °F55 %30.06 in10.0 miSW (220°)10.4 mphClear
6:15 AM30.0 °F17.2 °F59 %30.06 in10.0 miSW (220°)10.4 mphClear
6:35 AM29.3 °F17.8 °F62 %30.06 in10.0 miSSW (210°)11.5 mphClear
6:55 AM28.8 °F17.6 °F63 %30.06 in10.0 miSSW (210°)10.4 mphClear
7:15 AM29.8 °F17.4 °F60 %30.07 in10.0 miSW (230°)8.1 mphClear
7:35 AM28.6 °F17.4 °F63 %30.08 in10.0 miSW (220°)6.9 mphClear
7:55 AM27.9 °F17.2 °F64 %30.08 in10.0 miWSW (240°)4.6 mphClear
8:15 AM28.6 °F16.9 °F62 %30.08 in10.0 miWest (280°)5.8 mphClear
8:35 AM30.7 °F17.1 °F57 %30.08 in10.0 miWSW (250°)3.5 mphClear
8:55 AM32.5 °F16.5 °F52 %30.11 in10.0 miSSW (200°)5.8 mphClear
9:15 AM34.2 °F17.2 °F50 %30.11 in10.0 miSW (220°)3.5 mphClear
9:35 AM36.1 °F18.3 °F48 %30.11 in10.0 miWNW (300°)3.5 mphClear
9:55 AM39.2 °F19.0 °F44 %30.12 in10.0 miWNW (300°)3.5 mphClear
10:15 AM41.4 °F19.6 °F42 %30.12 in10.0 miWest (280°)3.5 mphClear
10:35 AM43.3 °F20.3 °F40 %30.14 in10.0 miCalmClear
10:55 AM45.9 °F21.6 °F38 %30.14 in10.0 miNW (320°)5.8 mphClear
11:15 AM48.9 °F22.1 °F35 %30.14 in10.0 miWNW (300°)5.8 mphClear
11:35 AM51.3 °F21.9 °F32 %30.13 in10.0 miWNW (290°)4.6 mphClear
12:35 PM56.7 °F22.6 °F27 %30.12 in10.0 miNW (310°)5.8 mphClear
12:55 PM58.1 °F22.1 °F25 %30.11 in10.0 miWSW (250°)6.9 mphClear
1:15 PM59.4 °F22.5 °F24 %30.10 in10.0 miWest (270°)6.9 mphClear
1:35 PM60.3 °F22.1 °F23 %30.08 in10.0 miSW (220°)8.1 mphClear
1:55 PM61.5 °F22.3 °F22 %30.07 in10.0 miSW (220°)5.8 mphClear
2:15 PM62.6 °F21.9 °F21 %30.06 in10.0 miSSW (200°)6.9 mphClear
2:35 PM63.5 °F20.8 °F20 %30.06 in10.0 miSSW (210°)5.8 mphClear
2:55 PM64.2 °F20.3 °F19 %30.07 in10.0 miNW (310°)5.8 mphClear
3:15 PM64.9 °F18.7 °F17 %30.08 in10.0 miWNW (290°)3.5 mphClear
3:35 PM65.3 °F17.2 °F16 %30.09 in10.0 miCalmClear
3:55 PM65.5 °F17.1 °F16 %30.10 in10.0 miNW (320°)4.6 mphClear
4:15 PM66.0 °F17.1 °F15 %30.11 in10.0 miNorth (10°)3.5 mphClear
4:35 PM66.2 °F17.1 °F15 %30.13 in10.0 miCalmClear
4:55 PM65.7 °F16.2 °F15 %30.14 in10.0 miNNW (330°)3.5 mphClear
5:15 PM65.5 °F16.0 °F15 %30.15 in10.0 miCalmClear
5:35 PM64.8 °F16.9 °F16 %30.15 in10.0 miCalmClear
5:55 PM62.6 °F19.0 °F19 %30.17 in10.0 miENE (60°)11.5 mphClear
6:15 PM57.0 °F25.5 °F30 %30.19 in10.0 miNNE (30°)21.9 mphClear
6:35 PM53.8 °F27.3 °F36 %30.20 in10.0 miNNE (30°)20.7 mph28.8 mphClear
6:55 PM51.4 °F27.5 °F40 %30.22 in10.0 miNNE (30°)20.7 mph24.2 mphClear
7:15 PM49.1 °F27.7 °F44 %30.24 in10.0 miNE (40°)19.6 mph25.3 mphClear
7:35 PM47.8 °F27.3 °F45 %30.25 in10.0 miNNE (30°)18.4 mph21.9 mphClear
7:55 PM46.8 °F27.3 °F47 %30.27 in10.0 miNE (40°)17.3 mphClear
8:15 PM45.9 °F27.7 °F49 %30.29 in10.0 miNE (40°)19.6 mph24.2 mphClear
8:35 PM44.8 °F27.5 °F51 %30.30 in10.0 miNE (40°)19.6 mph23.0 mphClear
8:55 PM43.7 °F27.0 °F52 %30.30 in10.0 miNNE (30°)15.0 mphClear
9:15 PM42.1 °F26.6 °F54 %30.31 in10.0 miNNE (30°)13.8 mphClear
9:35 PM40.8 °F26.1 °F56 %30.33 in10.0 miNE (50°)10.4 mphClear
9:55 PM39.9 °F25.7 °F57 %30.33 in10.0 miNE (40°)11.5 mphClear
10:15 PM38.8 °F25.3 °F58 %30.32 in10.0 miNE (50°)10.4 mphClear
10:35 PM38.3 °F25.3 °F60 %30.33 in10.0 miENE (60°)12.7 mph18.4 mphScattered Clouds
10:55 PM37.9 °F25.7 °F61 %30.34 in10.0 miENE (70°)11.5 mphScattered Clouds
11:15 PM36.5 °F25.9 °F65 %30.35 in10.0 miENE (70°)13.8 mphScattered Clouds
11:35 PM34.9 °F25.3 °F68 %30.36 in10.0 miENE (70°)16.1 mph20.7 mphScattered Clouds
11:55 PM33.8 °F24.4 °F69 %30.37 in10.0 miENE (70°)12.7 mphScattered Clouds
Hourly data recorded from KF05, located miles away from Crowell, Texas







STORIES FROM OUR PARTNERS